Flag for Germany Weather past 2 weeks in Speyer, Rhineland-Palatinate, Germany

Now
64 °F

Passing clouds.


Feels Like: 64 °F
Forecast: 53 / 70 °F
Wind: 2 mph from North

Location: Baden Wurttemberg - Neuostheim

Current Time: Sep 2, 2015 at 10:58:46 AM

Latest Report: Sep 2, 2015 at 10:20 AM


Visibility: N/A

Pressure: 30.07 "Hg

Humidity: 64%

Dew point: 52 °F

Location of SpeyerLocation

Historic Weather in Speyer — Graph

°F

Speyer temperature yesterday

Maximum temperature yesterday: 81 °F (at 11:50 AM)
Minimum temperature yesterday: 61 °F (at 11:50 PM)
Average temperature yesterday: 70 °F

Past Weeks' High & Low Weather Summary

 TemperatureHumidityPressure
High93 °F (Aug 30, 4:50 PM)100% (Aug 21, 6:50 AM)30.27 "Hg (Aug 21, 6:50 AM)
Low54 °F (Aug 19, 5:20 AM)21% (Aug 31, 4:20 PM)29.68 "Hg (Aug 23, 4:50 PM)
Average72 °F59%30.01 "Hg
* Reported Aug 18 9:20 AM — Sep 2 9:50 AM, Speyer, Weather by CustomWeather, © 2015

Note: Actual official high and low records may vary slightly from our data, if they occured in-between our weather recording intervals... More about our weather records

Advertising

Speyer weather history for previous 24 hours

 ConditionsComfort  
Time TempWeatherWind HumidityBarometerVisibility
9:50 AM
Wed, Sep 2
61 °FPassing clouds.3 mph77%30.07 "HgN/A
9:20 AM63 °FPassing clouds.2 mph73%30.07 "HgN/A
8:50 AM61 °FScattered clouds.3 mph83%30.07 "HgN/A
8:20 AM59 °FScattered clouds.3 mph82%30.07 "HgN/A
7:50 AM59 °FScattered clouds.5 mph82%30.07 "HgN/A
7:20 AM59 °FPassing clouds.5 mph88%30.07 "HgN/A
6:50 AM59 °FPassing clouds.2 mph82%30.07 "HgN/A
5:50 AM59 °FMostly cloudy.1 mph88%30.07 "HgN/A
11:50 PM
Tue, Sep 1
61 °FClear.5 mph77%30.07 "Hg10 mi
9:20 PM64 °FClear.9 mph68%30.01 "Hg10 mi
8:50 PM66 °FPartly sunny.10 mph64%30.01 "HgN/A
8:20 PM66 °FSunny.9 mph68%30.01 "Hg10 mi
7:50 PM66 °FBroken clouds.7 mph68%29.98 "HgN/A
7:20 PM66 °FPartly sunny.12 mph68%29.98 "HgN/A
6:50 PM66 °FOvercast.12 mph68%29.98 "HgN/A
6:20 PM66 °FMore clouds than sun.13 mph73%29.95 "HgN/A
5:50 PM66 °FPartly sunny.15 mph68%29.95 "HgN/A
5:20 PM66 °FBroken clouds.15 mph78%29.95 "HgN/A
4:50 PM68 °FBroken clouds.15 mph73%29.92 "HgN/A
4:20 PM68 °FLight rain. Broken clouds.8 mph73%29.89 "HgN/A
3:50 PM68 °FScattered showers. Partly sunny.15 mph73%29.89 "HgN/A
3:20 PM68 °FScattered showers. Broken clouds.14 mph69%29.89 "HgN/A
2:50 PM70 °FScattered showers. Partly sunny.10 mph69%29.86 "HgN/A
2:20 PM72 °FScattered showers. Scattered clouds.15 mph65%29.86 "HgN/A
1:50 PM75 °FScattered showers. Partly sunny.14 mph61%29.80 "HgN/A
1:20 PM72 °FLight rain. Broken clouds.18 mph69%29.80 "HgN/A
12:50 PM79 °FPassing clouds.13 mph48%29.77 "HgN/A
12:20 PM79 °FPassing clouds.10 mph48%29.77 "HgN/A
11:50 AM81 °FPassing clouds.8 mph48%29.77 "HgN/A
11:20 AM77 °FPassing clouds.10 mph54%29.77 "HgN/A
10:50 AM75 °FPassing clouds.6 mph57%29.80 "HgN/A
10:20 AM75 °FPassing clouds.8 mph61%29.77 "HgN/A
Weather by CustomWeather, © 2015

See weather overviewHow to use our weather pages